• In Czech Republic
  • List of Countries
  • For 7 days
  • Water Temperature
  • Satellite Maps
  • Weather Map
  • Weather Widgets
  • user-avatar
    Login

    Hourly Weather Albacete

    Today, 20 October, Saturday

    Time Temperature Precipitation Wind Pressure Humidity
    00:00 +13°C° 0 mm 3 mps 702 mmHg 83%
    01:00 +13°C° 0 mm 4 mps 702 mmHg 84%
    02:00 +13°C° 0 mm 4 mps 702 mmHg 85%
    03:00 +13°C° 0 mm 4 mps 702 mmHg 86%
    04:00 +13°C° 0 mm 5 mps 702 mmHg 88%
    05:00 +13°C° 0 mm 5 mps 702 mmHg 89%
    06:00 +13°C° 0 mm 5 mps 702 mmHg 90%
    07:00 +14°C° 0.1 mm 6 mps 703 mmHg 86%
    08:00 +15°C° 0.1 mm 6 mps 703 mmHg 83%
    09:00 +15°C° 0.1 mm 7 mps 703 mmHg 79%
    10:00 +16°C° 0.1 mm 7 mps 704 mmHg 75%
    11:00 +17°C° 0.1 mm 8 mps 704 mmHg 71%
    12:00 +18°C° 0.1 mm 9 mps 704 mmHg 67%
    13:00 +18°C° 0.1 mm 9 mps 704 mmHg 67%
    14:00 +18°C° 0.1 mm 10 mps 704 mmHg 67%
    15:00 +19°C° 0.1 mm 10 mps 704 mmHg 67%
    16:00 +18°C° 0 mm 10 mps 704 mmHg 73%
    17:00 +17°C° 0 mm 9 mps 703 mmHg 79%
    18:00 +16°C° 0 mm 9 mps 703 mmHg 84%
    19:00 +16°C° 0 mm 8 mps 704 mmHg 85%
    20:00 +16°C° 0 mm 8 mps 704 mmHg 87%
    21:00 +16°C° 0 mm 8 mps 704 mmHg 88%
    22:00 +15°C° 0 mm 8 mps 704 mmHg 89%
    23:00 +15°C° 0 mm 7 mps 704 mmHg 90%

    Tomorrow, 21 October, Sunday

    Time Temperature Precipitation Wind Pressure Humidity
    00:00 +15°C° 0 mm 7 mps 704 mmHg 91%
    01:00 +15°C° 0.1 mm 7 mps 704 mmHg 90%
    02:00 +16°C° 0.1 mm 7 mps 704 mmHg 89%
    03:00 +16°C° 0.1 mm 7 mps 704 mmHg 88%
    04:00 +15°C° 0 mm 7 mps 704 mmHg 89%
    05:00 +15°C° 0 mm 7 mps 704 mmHg 90%
    06:00 +15°C° 0 mm 6 mps 704 mmHg 92%
    07:00 +16°C° 0 mm 7 mps 704 mmHg 87%
    08:00 +17°C° 0 mm 7 mps 705 mmHg 82%
    09:00 +17°C° 0 mm 7 mps 705 mmHg 78%
    10:00 +18°C° 0 mm 7 mps 705 mmHg 74%
    11:00 +20°C° 0 mm 7 mps 705 mmHg 70%
    12:00 +21°C° 0 mm 6 mps 705 mmHg 66%
    13:00 +21°C° 0 mm 6 mps 705 mmHg 66%
    14:00 +21°C° 0 mm 6 mps 704 mmHg 66%
    15:00 +21°C° 0 mm 5 mps 704 mmHg 65%
    16:00 +20°C° 0 mm 4 mps 704 mmHg 71%
    17:00 +19°C° 0 mm 3 mps 704 mmHg 76%
    18:00 +18°C° 0 mm 3 mps 704 mmHg 81%
    19:00 +17°C° 0 mm 2 mps 704 mmHg 84%
    20:00 +17°C° 0 mm 2 mps 704 mmHg 87%
    21:00 +16°C° 0 mm 1 mps 704 mmHg 90%
    22:00 +16°C° 0 mm 1 mps 704 mmHg 90%
    23:00 +15°C° 0 mm 1 mps 704 mmHg 91%

    Day after tomorrow, 22 October, Monday

    Time Temperature Precipitation Wind Pressure Humidity
    00:00 +15°C° 0 mm 1 mps 704 mmHg 91%
    01:00 +15°C° 0 mm 1 mps 704 mmHg 91%
    02:00 +14°C° 0 mm 1 mps 703 mmHg 91%
    03:00 +13°C° 0 mm 0 mps 703 mmHg 90%
    04:00 +14°C° 0 mm 1 mps 703 mmHg 90%
    05:00 +14°C° 0 mm 1 mps 703 mmHg 89%
    06:00 +14°C° 0 mm 1 mps 703 mmHg 88%
    07:00 +15°C° 0 mm 1 mps 704 mmHg 80%
    08:00 +18°C° 0 mm 1 mps 704 mmHg 72%
    09:00 +20°C° 0 mm 1 mps 705 mmHg 64%
    10:00 +21°C° 0 mm 1 mps 705 mmHg 57%
    11:00 +22°C° 0 mm 1 mps 705 mmHg 50%
    12:00 +24°C° 0 mm 1 mps 706 mmHg 43%
    13:00 +24°C° 0 mm 2 mps 705 mmHg 42%
    14:00 +24°C° 0 mm 2 mps 705 mmHg 41%
    15:00 +25°C° 0 mm 3 mps 705 mmHg 41%
    16:00 +22°C° 0 mm 4 mps 705 mmHg 50%
    17:00 +20°C° 0 mm 4 mps 705 mmHg 59%
    18:00 +19°C° 0 mm 5 mps 705 mmHg 68%
    19:00 +17°C° 0 mm 5 mps 706 mmHg 73%
    20:00 +16°C° 0 mm 5 mps 706 mmHg 78%
    21:00 +15°C° 0 mm 5 mps 706 mmHg 84%
    22:00 +15°C° 0 mm 4 mps 706 mmHg 86%
    23:00 +15°C° 0 mm 4 mps 707 mmHg 87%

    23 October, Tuesday

    Time Temperature Precipitation Wind Pressure Humidity
    00:00 +15°C° 0 mm 4 mps 707 mmHg 89%
    01:00 +14°C° 0 mm 4 mps 707 mmHg 89%
    02:00 +14°C° 0 mm 3 mps 707 mmHg 89%
    03:00 +14°C° 0 mm 3 mps 707 mmHg 88%
    04:00 +14°C° 0 mm 3 mps 706 mmHg 90%
    05:00 +13°C° 0 mm 3 mps 706 mmHg 91%
    06:00 +13°C° 0 mm 3 mps 706 mmHg 93%
    07:00 +14°C° 0 mm 3 mps 707 mmHg 86%
    08:00 +16°C° 0 mm 3 mps 707 mmHg 80%
    09:00 +17°C° 0 mm 3 mps 707 mmHg 74%
    10:00 +18°C° 0 mm 3 mps 707 mmHg 67%
    11:00 +19°C° 0 mm 4 mps 707 mmHg 61%
    12:00 +20°C° 0 mm 4 mps 707 mmHg 55%
    13:00 +20°C° 0 mm 4 mps 707 mmHg 54%
    14:00 +20°C° 0 mm 4 mps 707 mmHg 53%
    15:00 +20°C° 0 mm 4 mps 707 mmHg 52%
    16:00 +19°C° 0 mm 3 mps 707 mmHg 57%
    17:00 +18°C° 0 mm 3 mps 707 mmHg 62%
    18:00 +17°C° 0 mm 3 mps 707 mmHg 67%
    19:00 +17°C° 0 mm 3 mps 707 mmHg 72%
    20:00 +16°C° 0 mm 3 mps 707 mmHg 76%
    21:00 +15°C° 0 mm 2 mps 707 mmHg 81%
    22:00 +15°C° 0 mm 2 mps 707 mmHg 84%
    23:00 +14°C° 0 mm 2 mps 707 mmHg 86%

    24 October, Wednesday

    Time Temperature Precipitation Wind Pressure Humidity
    00:00 +14°C° 0 mm 2 mps 707 mmHg 89%
    01:00 +13°C° 0 mm 1 mps 707 mmHg 90%
    02:00 +13°C° 0 mm 1 mps 706 mmHg 91%
    03:00 +12°C° 0 mm 1 mps 706 mmHg 92%
    04:00 +12°C° 0 mm 1 mps 706 mmHg 92%
    05:00 +12°C° 0 mm 1 mps 706 mmHg 93%
    06:00 +11°C° 0 mm 1 mps 706 mmHg 93%
    07:00 +13°C° 0 mm 1 mps 706 mmHg 85%
    08:00 +14°C° 0 mm 1 mps 707 mmHg 77%
    09:00 +16°C° 0 mm 1 mps 707 mmHg 68%
    10:00 +18°C° 0 mm 1 mps 707 mmHg 59%
    11:00 +20°C° 0 mm 1 mps 707 mmHg 49%
    12:00 +21°C° 0 mm 1 mps 707 mmHg 39%
    13:00 +22°C° 0 mm 1 mps 707 mmHg 36%
    14:00 +22°C° 0 mm 1 mps 706 mmHg 33%
    15:00 +23°C° 0 mm 1 mps 706 mmHg 30%
    16:00 +22°C° 0 mm 1 mps 706 mmHg 33%
    17:00 +19°C° 0 mm 2 mps 706 mmHg 36%
    18:00 +18°C° 0 mm 2 mps 705 mmHg 40%
    19:00 +17°C° 0 mm 2 mps 706 mmHg 41%
    20:00 +17°C° 0 mm 2 mps 706 mmHg 42%
    21:00 +16°C° 0 mm 1 mps 706 mmHg 43%
    22:00 +16°C° 0 mm 1 mps 706 mmHg 44%
    23:00 +15°C° 0 mm 1 mps 705 mmHg 45%

    25 October, Thursday

    Time Temperature Precipitation Wind Pressure Humidity
    00:00 +15°C° 0 mm 1 mps 705 mmHg 46%
    01:00 +14°C° 0 mm 1 mps 705 mmHg 46%
    02:00 +14°C° 0 mm 1 mps 705 mmHg 47%
    03:00 +13°C° 0 mm 1 mps 705 mmHg 48%
    04:00 +13°C° 0 mm 1 mps 704 mmHg 49%
    05:00 +13°C° 0 mm 1 mps 704 mmHg 49%
    06:00 +13°C° 0 mm 1 mps 704 mmHg 50%
    07:00 +15°C° 0 mm 1 mps 705 mmHg 44%
    08:00 +18°C° 0 mm 1 mps 705 mmHg 39%
    09:00 +20°C° 0 mm 1 mps 706 mmHg 33%
    10:00 +21°C° 0 mm 1 mps 706 mmHg 30%
    11:00 +22°C° 0 mm 1 mps 706 mmHg 27%
    12:00 +24°C° 0 mm 1 mps 706 mmHg 24%
    13:00 +24°C° 0 mm 2 mps 705 mmHg 23%
    14:00 +24°C° 0 mm 2 mps 705 mmHg 22%
    15:00 +25°C° 0 mm 2 mps 704 mmHg 21%
    16:00 +23°C° 0 mm 2 mps 704 mmHg 25%
    17:00 +21°C° 0 mm 2 mps 704 mmHg 28%
    18:00 +19°C° 0 mm 2 mps 704 mmHg 32%
    19:00 +18°C° 0 mm 2 mps 704 mmHg 35%
    20:00 +17°C° 0 mm 2 mps 704 mmHg 38%
    21:00 +16°C° 0 mm 2 mps 704 mmHg 40%
    22:00 +16°C° 0 mm 1 mps 704 mmHg 43%
    23:00 +15°C° 0 mm 1 mps 703 mmHg 45%
    Show more